Regional Weather Roundup
Issued by NWS

Current Version | Previous Version | Text Only | Print | Product List | Glossary On
Versions: 1 2 3 4 5 6 7 8 9 10 11 12 13 14 15 16 17 18 19 20 21 22 23 24 25 26 27 28 29 30 31 32 33 34 35 36 37 38 39 40 41 42 43 44 45 46 47 48 49 50
000
ASHW40 PHFO 252210
RWRHI

WEATHER ROUNDUP FOR HAWAII
NATIONAL WEATHER SERVICE HONOLULU HI
1200 PM HST THU DEC 25 2014

THIS IS AN AUTOMATED REPORT THAT HAS NOT BEEN QUALITY CONTROLLED.

NOTE..."FAIR" INDICATES FEW OR NO CLOUDS BELOW 12,000 FEET WITH NO
SIGNIFICANT WEATHER AND/OR OBSTRUCTIONS TO VISIBILITY.

* - THESE SITES REPORT LIMITED FIELDS

HIZ001>004-252300-
KAUAI-NIIHAU-

CITY           SKY/WX    TMP DP  RH WIND       PRES   REMARKS
LIHUE APT      MOSUNNY   78  62  57 VRB6      29.80F
PORT ALLEN*      N/A     81 N/A N/A W8G23       N/A
POIPU*           N/A     77 N/A N/A S3          N/A
PRINCEVILLE*     N/A     73 N/A N/A MISG        N/A
KOKOLE POINT*  NOT AVBL
MOLOAA DAIRY*  NOT AVBL
WAIMEA HTS*    NOT AVBL
PUU OPAE*      NOT AVBL
PUU LUA*       NOT AVBL
MAKAHA RIDGE*  NOT AVBL
$$

HIZ005>011-252300-
OAHU-

CITY           SKY/WX    TMP DP  RH WIND       PRES   REMARKS
HONOLULU       MOSUNNY   78  63  59 S6        29.77F
KALAELOA       SUNNY     78  64  61 W20       29.79F
KANEOHE MCB    SUNNY     78  65  63 NE7       29.77F
WHEELER FIELD  FAIR      75  63  67 NW10      29.79F
BELLOWS*       NOT AVBL
KAHUKU*        NOT AVBL
WHEELER*       NOT AVBL
WAIANAE HARBOR NOT AVBL
DILLINGHAM*      N/A     82  66  57 W3G12       N/A
KAHUKU TRN*      N/A     64  52  63 W5G15       N/A
KAWAILOA*        N/A     72  64  78 W6G13       N/A
KII*             N/A     75  64  69 W13G18      N/A
MAKUA RANGE*     N/A     79  64  61 NW3         N/A
OAHU FOREST NW NOT AVBL
SCHOFIELD BRK*   N/A     55  46  71 MISG        N/A
SCHOFIELD S*   NOT AVBL
WAIANAE VLY*   NOT AVBL
KUAOKALA*      NOT AVBL
HONOULIUULI*   NOT AVBL
MOKUOLOE IS*   NOT AVBL
PALEHUA*       NOT AVBL
WAIAWA PHB*    NOT AVBL
$$

HIZ012>013-252300-
MOLOKAI-

CITY           SKY/WX    TMP DP  RH WIND       PRES   REMARKS
MOLOKAI AIRPT  SUNNY     76  63  64 W7        29.79F
KALAUPAPA      NOT AVBL
MAKAPULAPAI*   NOT AVBL
MOLOKAI 1*     NOT AVBL
PUU ALII*      NOT AVBL
$$

HIZ016-252300-
KAHOOLAWE-

CITY           SKY/WX    TMP DP  RH WIND       PRES   REMARKS
KAHOOLAWE*     NOT AVBL
HAKIOAWA*      NOT AVBL
HONOKANAIA*      N/A     78  65  64 W6        29.81F
KANELOA*         N/A     75  66  73 NW8G15    29.05S
KEALIALALO*    NOT AVBL
LUA MAKIKA*    NOT AVBL
$$

HIZ014>015-252300-
LANAI-

CITY           SKY/WX    TMP DP  RH WIND       PRES   REMARKS
LANAI CITY     PTSUNNY   74  64  70 W5        29.84F
LANAI 1*       NOT AVBL
$$

HIZ017>028-252300-
MAUI-

CITY           SKY/WX    TMP DP  RH WIND       PRES   REMARKS
KAHULUI        MOSUNNY   79  63  57 S14       29.78F
KAPALUA-W MAUI MOSUNNY   75  63  64 S5        29.81
HANA AIRPORT   CLOUDY    73  64  73 CALM      29.80F
HANA*          NOT AVBL
HALEAKALA SUMM   N/A     52   9  17 SW23G43     N/A
MAALAEA BAY*   NOT AVBL
HALEAKALA*     NOT AVBL
KAUPO GAP*     NOT AVBL
KULA 1*          N/A     58  48  69 SW7G13      N/A
$$

HIZ023>026-252300-
BIG ISLAND OF HAWAII COAST AND LOWER SLOPES-

CITY           SKY/WX    TMP DP  RH WIND       PRES   REMARKS
KAILUA KONA    MOSUNNY   80  65  59 W8        29.80F
HILO           CLOUDY    76  68  76 NE5       29.78F
HONOKAA*       NOT AVBL
KAWAIHAE MWT*  NOT AVBL
KAWAIHAE*      NOT AVBL
SOUTH POINT*   NOT AVBL
UPOLU AIRPORT* NOT AVBL
KAMUELA*       PTCLDY    72  57  60 W12       29.89S
HAKALAU*         N/A     56  49  79 NE3G10      N/A
KALOKO-HONOKO* NOT AVBL
PALI 2*          N/A     73  54  49 SE9G15      N/A
KEALAKOMO*       N/A     90  72  55 SE3G9       N/A  HX  96
KAUPULEHU*     NOT AVBL
KAPAPALA*        N/A     77  63  61 E1G10       N/A
LOWER KAHUKU*  NOT AVBL
PUHE CS*       NOT AVBL
PUHO CS*       NOT AVBL
PTA KEAMUKU*     N/A     64  57  77 CALM        N/A
WAIKOLOA*      NOT AVBL
$$

HIZ027>028-252300-
BIG ISLAND OF HAWAII INTERIOR AND SUMMMITS-

CITY           SKY/WX    TMP DP  RH WIND       PRES   REMARKS
BRADSHAW FIELD SUNNY     67  29  24 SW12G21   30.10F
MK VISITOR CEN NOT AVBL
MAUNA KEA*       N/A     36  -8  15 NW53        N/A  WCI  19
MAUNA LOA*       N/A     52  -9   7 MISG        N/A
MAUNA LOA 1*   NOT AVBL
PTA KIPUKA*      N/A     68  41  37 W10G20      N/A
PTA RANGE 17*    N/A     66  43  42 NW8G16      N/A
PTA WEST*        N/A     64  55  72 W9          N/A
NENE CABIN*    NOT AVBL
AHUMOA*        NOT AVBL
PTA PORTABLE*  NOT AVBL
PUU MALI*      NOT AVBL
$$

HIC003-252300-
NORTHWEST ISLANDS-

CITY           SKY/WX    TMP DP  RH WIND       PRES   REMARKS
MIDWAY ISLAND  MOSUNNY   75  66  73 S5        30.09S HAZE
MIDWAY NOS*    NOT AVBL
FRENCH FRIGATE NOT AVBL
$$

PHZ110>124-180-252300-
BUOY REPORTS

STATION/POSITION TIME  TEMP    WIND        PRES    WAVE   SWELL
                       AIR SEA DIR/SP/G            HT/PER HT/DIR
                 (UTC) (F)     (DEG/KT/KT) (MB)    (FT/S) (FT/D)
BUOY 51001       NOT AVBL
BUOY 51101       2200   71 76  320/ 19/ 23 1010.1F  11/11   7/ 50
BUOY 51100       2200   74 75  250/ 14/ 17 1006.2F
BUOY 51003       2100   75 78  330/ 12/ 16 1010.4F   9/11   8
BUOY 51004       2055   77 78  270/  2/  4 1009.2F  10/13  10/350
BARBERS PT BUOY  NOT AVBL
WAIMEA BAY BUOY  2200      77                N/A     8/11   5/ 10
KAILUA BAY BUOY  2200      77                N/A     8/11   5/ 40
LANAI BUOY       2200      79                N/A     4/10   2/290
BARBERS PT 2     2200      77                N/A     4/12   2/250
PAUWELA MAUI     2200      77                N/A    10/11   7/ 50
HILO             2200      78                N/A     9/11   5/ 20
KANEOHE BAY BUOY 2200      77                N/A     7/11   5/ 20
HANALEI KAUAI    NOT AVBL
KAHULUI HARBOR   2200   76 76  230/  4/  8 1008.3F
HONOLULU HARBOR  2200   74     230/  7/  9 1008.6F
KILO NALU        NOT AVBL
HILO HARBOR      2200   77      30/  4/  5 1008.0F
MOKUOLOE         2200      74              1008.6F
NAWILIWILI       2200      78                N/A
WHOTS BUOY       NOT AVBL
BUOY 51028       NOT AVBL
$$

......................KEY........................................
  SKY/WX - SKY CONDITIONS/PRESENT WEATHER
  TMP    - TEMPERATURE IN FAHRENHEIT
  DWPT   - DEWPOINT IN FAHRENHEIT
  RH     - RELATIVE HUMIDITY IN PERCENT
  WIND   - DIRECTION AND SPEED /MPH FOR ISLANDS...KTS FOR BUOYS/
  PRES   - MEAN SEA LEVEL PRESSURE IN INCHES OF HG
  VSB    - VISIBILITY IN MILES
  HX     - HEAT INDEX
  WCI    - WIND CHILL INDEX
  VRB    - VARIABLE WIND DIRECTION
  N/A    - NOT AVAILABLE


USA.gov is the U.S. government's official web portal to all federal, state and local government web resources and services.